Weather History for Montreal, QC

Change the Weather History Date:

Tuesday, October 16, 2012

  Actual Average Record
Temperature  
Mean Temperature 42 °F -  
Max Temperature 48 °F 53 °F 71 °F (2014)
Min Temperature 37 °F 38 °F 33 °F (2000)
Degree Days  
Heating Degree Days 22    
Moisture  
Dew Point 35 °F    
Average Humidity 67    
Maximum Humidity 81    
Minimum Humidity 50    
Precipitation  
Precipitation 0.00 in - - ()
Sea Level Pressure  
Sea Level Pressure 29.74 in    
Wind  
Wind Speed 13 mph ()    
Max Wind Speed 20 mph    
Max Gust Speed 30 mph    
Visibility 15.0 miles    
Events      
Averages and records for this station are not official NWS values.
T = Trace of Precipitation, MM = Missing Value Source: Averaged Metar Reports

Daily Weather History Graph

Daily Weather History Graph

Search for Another Location

Airport:

Trip Planner

Search our weather history database for the weather conditions in past years. The results will help you decide how hot, cold, wet, or windy it might be!

Date:

Astronomy

Oct. 16, 2012 Rise Set
Actual Time 7:13 AM EDT 6:06 PM EDT
Civil Twilight 6:43 AM EDT 6:36 PM EDT
Nautical Twilight 6:08 AM EDT 7:11 PM EDT
Astronomical Twilight 5:34 AM EDT 7:45 PM EDT
Moon 8:38 AM EDT (10/16) 6:42 PM EDT (10/16)
Length of Visible Light 11h 53m
Length of Day
10h 53m
New Moon, 2% of the Moon is Illuminated
Oct 16
New Moon
Oct 21
First Quarter
Oct 29
Full
Nov 6
Last Quarter
Nov 13
New

Hourly Weather History & Observations

Time (EDT) Temp. Windchill Dew Point Humidity Pressure Visibility Wind Dir Wind Speed Gust Speed Precip Events Conditions
12:00 AM 53.6 °F - 39.2 °F 58% 29.59 in 15.0 mi WSW 17.3 mph 29.9 mph N/A   Mostly Cloudy
1:00 AM 50.0 °F - 39.2 °F 66% 29.60 in 15.0 mi WSW 17.3 mph 27.6 mph N/A   Partly Cloudy
2:00 AM 49 °F - 39 °F 59% 29.63 in 15 mi WSW 15.0 mph - -   Mostly Cloudy
2:00 AM 48.2 °F - 39.2 °F 71% 29.63 in 15.0 mi WSW 15.0 mph - N/A   Mostly Cloudy
3:00 AM 46.4 °F 39.2 °F 35.6 °F 66% 29.62 in 15.0 mi West 18.4 mph - N/A   Scattered Clouds
4:00 AM 44.6 °F 38.8 °F 37.4 °F 76% 29.62 in 15.0 mi WSW 11.5 mph 18.4 mph N/A   Mostly Cloudy
5:00 AM 44.6 °F 38.1 °F 37.4 °F 76% 29.65 in 15.0 mi West 13.8 mph - N/A   Overcast
6:00 AM 42.8 °F 36.6 °F 37.4 °F 81% 29.66 in 15.0 mi West 11.5 mph 20.7 mph N/A   Overcast
7:00 AM 41.0 °F 32.5 °F 33.8 °F 76% 29.68 in 15.0 mi West 17.3 mph - N/A   Mostly Cloudy
8:00 AM 41 °F - 33 °F 66% 29.72 in 15 mi West 11.5 mph - -   Scattered Clouds
8:00 AM 41.0 °F 35.2 °F 33.8 °F 76% 29.72 in 15.0 mi West 9.2 mph 19.6 mph N/A   Mostly Cloudy
9:00 AM 42.8 °F 35.8 °F 33.8 °F 70% 29.73 in 15.0 mi WNW 13.8 mph 19.6 mph N/A   Partly Cloudy
10:00 AM 42.8 °F 36.6 °F 33.8 °F 70% 29.74 in 15.0 mi West 11.5 mph - N/A   Mostly Cloudy
11:00 AM 46.4 °F 39.8 °F 35.6 °F 66% 29.75 in 15.0 mi WNW 16.1 mph 21.9 mph N/A   Mostly Cloudy
12:00 PM 46.4 °F 40.4 °F 33.8 °F 62% 29.76 in 15.0 mi West 13.8 mph - N/A   Mostly Cloudy
1:00 PM 46.4 °F 39.5 °F 35.6 °F 66% 29.77 in 15.0 mi West 17.3 mph 25.3 mph N/A   Overcast
2:00 PM 47 °F - 34 °F 50% 29.78 in 15 mi West 15.0 mph - -   Mostly Cloudy
2:00 PM 46.4 °F 40.1 °F 33.8 °F 62% 29.78 in 15.0 mi West 15.0 mph - N/A   Mostly Cloudy
3:00 PM 48.2 °F - 33.8 °F 58% 29.77 in 15.0 mi West 18.4 mph 24.2 mph N/A   Mostly Cloudy
4:00 PM 46.4 °F 39.0 °F 33.8 °F 62% 29.78 in 15.0 mi West 19.6 mph - N/A   Mostly Cloudy
5:00 PM 46.4 °F 39.5 °F 32.0 °F 57% 29.79 in 15.0 mi West 17.3 mph - N/A   Mostly Cloudy
6:00 PM 44.6 °F 38.4 °F 32.0 °F 61% 29.80 in 15.0 mi West 12.7 mph 18.4 mph N/A   Partly Cloudy
7:00 PM 44.6 °F 39.7 °F 32.0 °F 61% 29.82 in 15.0 mi West 9.2 mph - N/A   Partly Cloudy
8:00 PM 41 °F - 32 °F 59% 29.83 in 15 mi West 6.9 mph - -   Scattered Clouds
8:00 PM 41.0 °F 37.1 °F 32.0 °F 70% 29.83 in 15.0 mi West 5.8 mph - N/A   Partly Cloudy
9:00 PM 39.2 °F 35.9 °F 32.0 °F 75% 29.85 in 15.0 mi WNW 4.6 mph - N/A   Partly Cloudy
10:00 PM 37.4 °F 32.1 °F 32.0 °F 81% 29.86 in 15.0 mi WNW 6.9 mph - N/A   Clear
11:00 PM 39.2 °F 35.9 °F 32.0 °F 75% 29.88 in 15.0 mi SSW 4.6 mph - N/A   Clear